Gulfport, MS

6:30 AM CDT on April 25, 2017 (GMT -0500)
Gulfport-Biloxi Regional

Weather History for KGPT - January, 2013

Change the Weather History Date:

Wednesday, January 30, 2013

  Actual Average Record
Temperature  
Mean Temperature 58 °F -  
Max Temperature 70 °F 62 °F 76 °F (1965)
Min Temperature 44 °F 45 °F 13 °F (1966)
Degree Days  
Heating Degree Days 8    
Growing Degree Days 8 (Base 50)    
Moisture  
Dew Point 57 °F    
Average Humidity 85    
Maximum Humidity 100    
Minimum Humidity 45    
Precipitation  
Precipitation 0.61 in - - ()
Sea Level Pressure  
Sea Level Pressure 29.82 in    
Wind  
Wind Speed 12 mph (SW)    
Max Wind Speed 28 mph    
Max Gust Speed 40 mph    
Visibility 4 miles    
Events Fog , Rain    
Averages and records for this station are not official NWS values.
T = Trace of Precipitation, MM = Missing Value Source: NWS Daily Summary

Daily Weather History Graph

Daily Weather History Graph

Search for Another Location

Airport or City:

Trip Planner

Search our weather history database for the weather conditions in past years. The results will help you decide how hot, cold, wet, or windy it might be!

Date:

Astronomy

Jan. 30, 2013 Rise Set
Actual Time 6:48 AM CST 5:31 PM CST
Civil Twilight 6:22 AM CST 5:56 PM CST
Nautical Twilight 5:54 AM CST 6:25 PM CST
Astronomical Twilight 5:25 AM CST 6:53 PM CST
Moon 9:08 PM CST (1/30) 8:35 AM CST (1/30)
Length of Visible Light 11h 33m
Length of Day
10h 43m
Waning Gibbous, 87% of the Moon is Illuminated
Jan 30
Waning Gibbous
Feb 3
Last Quarter
Feb 10
New
Feb 17
First Quarter
Feb 25
Full

Hourly Weather History & Observations

Time (CST) Temp. Windchill Dew Point Humidity Pressure Visibility Wind Dir Wind Speed Gust Speed Precip Events Conditions
12:42 AM 68.0 °F - 68.0 °F 100% 29.83 in 1.8 mi South 11.5 mph 18.4 mph N/A   Overcast
12:53 AM 68.0 °F - 68.0 °F 100% 29.83 in 1.8 mi South 12.7 mph 19.6 mph N/A   Overcast
1:28 AM 68.0 °F - 68.0 °F 100% 29.81 in 0.8 mi South 13.8 mph - N/A   Overcast
1:53 AM 68.0 °F - 68.0 °F 100% 29.80 in 0.5 mi South 13.8 mph 21.9 mph N/A Fog Fog
2:25 AM 68.0 °F - 66.2 °F 94% 29.79 in 0.2 mi South 12.7 mph 21.9 mph N/A Fog Fog
2:38 AM 68.0 °F - 66.2 °F 94% 29.78 in 0.5 mi South 12.7 mph 23.0 mph N/A Fog Fog
2:53 AM 68.0 °F - 68.0 °F 100% 29.78 in 0.8 mi South 10.4 mph 21.9 mph N/A   Overcast
3:01 AM 68.0 °F - 68.0 °F 100% 29.77 in 1.2 mi South 13.8 mph 23.0 mph N/A   Overcast
3:19 AM 68.0 °F - 68.0 °F 100% 29.77 in 2.5 mi South 12.7 mph 25.3 mph N/A   Overcast
3:27 AM 68.0 °F - 68.0 °F 100% 29.77 in 3.0 mi South 12.7 mph 21.9 mph N/A   Overcast
3:53 AM 68.0 °F - 68.0 °F 100% 29.76 in 3.0 mi South 10.4 mph 20.7 mph N/A   Overcast
4:53 AM 69.1 °F - 68.0 °F 96% 29.74 in 3.0 mi South 11.5 mph 21.9 mph N/A   Overcast
5:00 AM 69.8 °F - 68.0 °F 94% 29.73 in 2.5 mi South 9.2 mph 19.6 mph N/A   Overcast
5:26 AM 68.0 °F - 68.0 °F 100% 29.72 in 1.8 mi South 12.7 mph 19.6 mph N/A   Overcast
5:53 AM 68.0 °F - 66.2 °F 94% 29.72 in 1.5 mi South 6.9 mph 23.0 mph N/A   Overcast
6:53 AM 69.1 °F - 66.9 °F 93% 29.71 in 1.5 mi South 15.0 mph 25.3 mph N/A   Overcast
7:53 AM 69.1 °F - 66.9 °F 93% 29.72 in 1.5 mi South 13.8 mph 24.2 mph N/A   Overcast
8:00 AM 69.8 °F - 66.2 °F 88% 29.71 in 2.5 mi South 10.4 mph 23.0 mph N/A   Overcast
8:53 AM 70.0 °F - 66.9 °F 90% 29.71 in 2.5 mi South 19.6 mph 33.4 mph N/A   Overcast
9:33 AM 64.4 °F - 60.8 °F 88% 29.75 in 2.5 mi West 11.5 mph 26.5 mph 0.00 in Rain Light Rain
9:45 AM 60.8 °F - 57.2 °F 88% 29.77 in 2.5 mi West 15.0 mph 27.6 mph 0.08 in Rain Heavy Rain
9:53 AM 60.1 °F - 57.9 °F 93% 29.77 in 0.5 mi WNW 17.3 mph 23.0 mph 0.18 in Fog , Rain Heavy Rain
10:04 AM 60.8 °F - 57.2 °F 88% 29.77 in 1.5 mi WNW 17.3 mph 23.0 mph 0.07 in Rain Heavy Rain
10:53 AM 55.9 °F - 52.0 °F 87% 29.79 in 1.8 mi WNW 12.7 mph - 0.28 in Rain Rain
11:53 AM 54.0 °F - 51.1 °F 90% 29.79 in 4.0 mi WNW 3.5 mph - 0.11 in Rain Light Rain
12:53 PM 55.0 °F - 52.0 °F 89% 29.80 in 8.0 mi SW 4.6 mph - 0.02 in   Mostly Cloudy
1:53 PM 55.9 °F - 52.0 °F 87% 29.81 in 10.0 mi Variable 4.6 mph - 0.01 in   Overcast
2:53 PM 57.0 °F - 51.1 °F 81% 29.79 in 10.0 mi West 6.9 mph - 0.00 in   Overcast
3:53 PM 57.0 °F - 46.0 °F 67% 29.82 in 10.0 mi West 8.1 mph - N/A   Overcast
4:53 PM 57.0 °F - 36.0 °F 45% 29.86 in 10.0 mi West 12.7 mph 21.9 mph 0.01 in   Mostly Cloudy
5:53 PM 55.0 °F - 36.0 °F 49% 29.90 in 10.0 mi WNW 10.4 mph - N/A   Clear
6:53 PM 53.1 °F - 37.0 °F 55% 29.95 in 10.0 mi WNW 16.1 mph 23.0 mph N/A   Clear
7:53 PM 52.0 °F - 36.0 °F 54% 30.01 in 10.0 mi NW 15.0 mph 25.3 mph N/A   Clear
8:53 PM 48.9 °F - 32.0 °F 52% 30.06 in 10.0 mi NNW 27.6 mph 40.3 mph N/A   Clear
9:53 PM 46.0 °F 39.6 °F 32.0 °F 58% 30.10 in 10.0 mi NW 15.0 mph - N/A   Clear
10:53 PM 45.0 °F 40.1 °F 32.0 °F 60% 30.14 in 10.0 mi NW 9.2 mph - N/A   Clear
11:53 PM 44.1 °F 38.6 °F 30.9 °F 60% 30.15 in 10.0 mi NW 10.4 mph - N/A   Clear